Flag for France Weather past 2 weeks in Bastia, Corsica, France

Now
52 °F

Scattered clouds.


Feels Like: 51 °F
Forecast: 48 / 59 °F
Wind: 5 mph from Southwest

Location: Bastia Airport

Current Time: Dec 19, 2014 at 9:44:08 AM

Latest Report: Dec 19, 2014 at 9:00 AM


Visibility: N/A

Pressure: 30.24 "Hg

Humidity: 72%

Dew point: 43 °F

Location of BastiaLocation

Historic Weather in Bastia — Graph

°F

Bastia temperature yesterday

Maximum temperature yesterday: 63 °F (at 11:00 AM)
Minimum temperature yesterday: 48 °F (at 3:30 AM)
Average temperature yesterday: 55 °F

Past Weeks' High & Low Weather Summary

 TemperatureHumidityPressure
High64 °F (Dec 4, 11:00 AM)94% (Dec 4, 8:30 PM)30.24 "Hg (Dec 4, 8:30 PM)
Low41 °F (Dec 12, 7:30 AM)39% (Dec 6, 3:00 PM)29.71 "Hg (Dec 9, 6:30 AM)
Average53 °F76%29.98 "Hg
* Reported Dec 4 8:00 AM — Dec 19 8:30 AM, Bastia, Weather by CustomWeather, © 2014

Note: Actual official high and low records may vary slightly from our data, if they occured in-between our weather recording intervals... More about our weather records

Advertising

Bastia weather history for previous 24 hours

 ConditionsComfort  
Time TempWeatherWind HumidityBarometerVisibility
8:30 AM
Dec 19
50 °FScattered clouds.6 mph76%30.24 "HgN/A
8:00 AM48 °FScattered clouds.3 mph82%30.21 "HgN/A
7:30 AM50 °FClear.3 mph76%30.21 "Hg10 mi
7:00 AM52 °FClear.6 mph72%30.21 "Hg10 mi
6:30 AM52 °FPassing clouds.7 mph72%30.21 "HgN/A
6:00 AM52 °FClear.10 mph72%30.21 "Hg10 mi
5:30 AM52 °FClear.10 mph77%30.21 "Hg10 mi
4:30 AM52 °FClear.9 mph72%30.21 "Hg10 mi
4:00 AM52 °FPassing clouds.6 mph77%30.21 "HgN/A
3:30 AM52 °FPassing clouds.6 mph77%30.21 "HgN/A
3:00 AM52 °FClear.5 mph77%30.21 "Hg10 mi
2:30 AM52 °FClear.3 mph77%30.21 "Hg10 mi
2:00 AM54 °FClear.7 mph72%30.21 "HgN/A
1:30 AM52 °FClear.12 mph77%30.21 "HgN/A
1:00 AM54 °FClear.8 mph72%30.21 "HgN/A
12:30 AM54 °FClear.6 mph77%30.21 "HgN/A
12:00 AM54 °FClear.7 mph77%30.21 "Hg10 mi
11:30 PM
Dec 18
52 °FPassing clouds.6 mph82%30.21 "HgN/A
11:00 PM54 °FClear.7 mph77%30.21 "Hg10 mi
10:30 PM54 °FClear.7 mph77%30.21 "Hg10 mi
10:00 PM54 °FPassing clouds.7 mph77%30.18 "HgN/A
9:30 PM55 °FClear.8 mph77%30.18 "Hg10 mi
9:00 PM54 °FClear.8 mph88%30.18 "Hg10 mi
8:30 PM54 °FClear.7 mph88%30.18 "Hg10 mi
8:00 PM52 °FClear.3 mph88%30.18 "Hg10 mi
7:30 PM52 °FClear.3 mph94%30.18 "Hg10 mi
7:00 PM52 °FClear.3 mph94%30.15 "Hg10 mi
6:30 PM52 °FPassing clouds.2 mph88%30.15 "HgN/A
6:00 PM52 °FPassing clouds.2 mph88%30.15 "HgN/A
5:30 PM54 °FPassing clouds.3 mph88%30.12 "HgN/A
5:04 PM55 °FPassing clouds.3 mph82%30.12 "HgN/A
4:30 PM59 °FPassing clouds.2 mph72%30.12 "HgN/A
4:00 PM61 °FPassing clouds.2 mph72%30.12 "HgN/A
3:30 PM61 °FPassing clouds.2 mph72%30.12 "HgN/A
2:30 PM63 °FPassing clouds.5 mph68%30.09 "HgN/A
2:00 PM63 °FPassing clouds.5 mph68%30.09 "HgN/A
1:30 PM63 °FPassing clouds.3 mph68%30.09 "HgN/A
1:00 PM63 °FPassing clouds.2 mph68%30.09 "HgN/A
12:30 PM63 °FPassing clouds.3 mph68%30.09 "HgN/A
12:12 PM63 °FPassing clouds.5 mph68%30.09 "HgN/A
11:30 AM63 °FPassing clouds.2 mph64%30.09 "HgN/A
11:00 AM63 °FPassing clouds.No wind59%30.09 "HgN/A
10:30 AM61 °FPassing clouds.2 mph63%30.09 "HgN/A
10:00 AM57 °FPassing clouds.3 mph72%30.09 "HgN/A
9:30 AM55 °FScattered clouds.3 mph77%30.07 "HgN/A
9:00 AM54 °FScattered clouds.2 mph82%30.07 "HgN/A
Weather by CustomWeather, © 2014

See weather overviewHow to use our weather pages